BREEZE-M DEB, 34259

Orbit data source: Space-Track

BREEZE-M DEB, 34259 is space debris in HEO originally from a launch on Tue, 28 Feb 2006 UTC launched from the Tyuratam Missile And Space Complex (TTMTR). Debris objects in space refer to the collection of defunct objects orbiting the Earth. Examples of debris include non-operational satellites, rocket bodies, and fragments generated from explosions, collisions, or faulty payload assembly.

Loading next visibility...
Identifier
34259, 2006-006CA
Orbit
HEO
Country
Flag of CISCIS
Related business
Manufacturer
Khrunichev
Mission
Spacecraft
Bus & Motor
Unknown
Mass
Unknown
Launch date (UTC)
2006-02-28 (20 years ago)
Launch vehicle
Unknown
Launch site
Tyuratam Missile And Space Complex (TTMTR)
Object type
Payload
Rocket body
Debris
Shape & HBR
Unknown shape, 0.4 m
Radar Cross Section
Medium (>0.1 m² and <1 m²)

Expand to show TLE details & history
Last TLE update: 1 day ago

TLE from 1 day ago
0 BREEZE-M DEB
1 34259U 06006CA  26162.09908940  .00000009  00000-0  00000-0 0  9990
2 34259  51.0617 117.9525 4721660  59.9970 338.5561  5.07956137377168
Epoch: 2026-06-11T02:22Z
TLE epoch observation values (Epoch: 2026-06-11T02:22:41.324Z)
Latitude
0.00009°
Longitude
-177.18162°
Altitude
2,607.054 km
Speed
7.801 km/s
True Right ascension
07h 51m 45s
True Declination
0° 00' 00"
Sunlit
Object was in daylight at epoch
Visualization orbit readout
Latitude
Unknown
Longitude
Unknown
Altitude
Unknown
Speed
Unknown
Apparent Right ascension
Unknown
Apparent Declination
Unknown
Sunlit
N/A
Visualization observer readout
Local Sidereal Time
15:31:29
Azimuth
Unknown
Elevation
Unknown
Doppler factor
Unknown
Orbital elements
Apogee altitude
14,667.111 km
Perigee altitude
1,167.478 km
Semi-major axis
14,295.432 km
Eccentricity
0.47217
Inclination
51.0617°
RAAN
117.9525°
Arg. of periapsis
59.997°
True anomaly
299.97627°
Mean anomaly
338.5561°
Eccentric anomaly
321.8417°
Mean motion
1.26983 °/min
Orbital period
283.5 mins
BSTAR
0
Loading maneuver chart data...
Computing Atmospheric mass density...
Loading historical data...
Loading historical data...
Loading historical data...
Loading historical data...
Loading historical data...
Loading historical data...
Loading historical data...

Documentation

Showing up to 5 results
|